Location: Academy at Carrie F Thomas
(32.8490°N, 97.2053°W)
Time: 06:20:54
(UTC+00:00)

Cosmos 1515 Rocket - Pass Details

Date: 29 June 2022
Orbit: 604 x 630 km, 82.5° (Epoch: 14 August)

Event Time Altitude Azimuth Distance (km) Brightness Sun altitude
Rises 09:04:18 0° 10° (N) 2,898 8.0 -23.2°
Reaches altitude 10° 09:07:00 10° 27° (NNE) 1,983 7.2 -22.9°
Maximum altitude 09:10:21 21° 77° (ENE) 1,377 5.9 -22.4°
Drops below altitude 10° 09:13:41 10° 127° (SE) 1,961 6.1 -22.0°
Enters shadow 09:15:48 - 141° (SE) 2,671 6.7 -21.7°
